[[{"header":{"parameterUnit":"m.s-1","parameterCategory":2,"la1":30.2992,"la2":30.254,"lo1":-89.0895,"lo2":-89.0443,"dy":0.0025,"dx":0.0025,"nx":19,"ny":19,"refTime":"2026-05-23T21:00:00:Z","depth":"0","parameterNumber":2,"parameterNumberName":"U-component_of_CURRENTS"},"data":[0,0,0,0.0182,0.0183,0.026,0.026,0.0355,0.0356,0,0,0,0,0,0,0,0,0,0,0,0.0153,0.0153,0.0181,0.0184,0.026,0.026,0.0355,0.0356,0,0,0,0,0,0,0,0,0,0,0,0.0152,0.0153,0.0154,0.0184,0.026,0.026,0.0355,0.0297,0,0,0,0,0,0,0,0,0,0,0.0223,0.0201,0.0153,0.0154,0.0184,0.026,0.026,0.0294,0.0301,0.0322,0,0.0337,0,0.0353,0.0363,0.0363,0,0,0,0.0179,0.0195,0.0215,0.0154,0.0185,0.0259,0.0224,0.0298,0.0305,0.033,0.0339,0.0342,0.0355,0.0364,0.0364,0.0498,0.0498,0,0,0.0175,0.0168,0.021,0.022,0.0211,0.0222,0.0227,0.0302,0.0313,0.0339,0.0345,0.0356,0.0364,0.0365,0.0497,0.0498,0,0,0,0.0166,0.0165,0.0183,0.0216,0.0232,0.0224,0.023,0.0309,0.0315,0.0346,0.0357,0.0365,0.0366,0.0496,0.0497,0.0487,0,0,0,0.0163,0.016,0.0181,0.0177,0.0231,0.0273,0.0235,0.031,0.0319,0.0357,0.0365,0.0367,0.0495,0.0497,0.0486,0.0473,0,0,0,0.0148,0.0158,0.0168,0.0177,0.0212,0.0272,0.0282,0.0312,0.0326,0.0364,0.0367,0.0495,0.0496,0.0485,0.0472,0.0521,0,0,0,0.0136,0.0163,0.0168,0.0199,0.0211,0.0263,0.0282,0.033,0.0363,0.0366,0.0495,0.0497,0.0484,0.0471,0.0519,0.046,0.0462,0,0,0.0162,0.0166,0.0182,0.0189,0.0221,0.0252,0.0307,0.0358,0.0397,0.0468,0.0471,0.0486,0.0471,0.052,0.0557,0.0556,0,0,0,0.0185,0.0189,0.0202,0.0221,0.0259,0.0297,0.035,0.0388,0.0466,0.0427,0.0524,0.0515,0.0546,0.0508,0.0508,0.0277,0.0505,0.0505,0.0505,0.0193,0.0202,0.0224,0.0242,0.0274,0.0339,0.0386,0.0456,0.0483,0.053,0.0535,0.0601,0.0562,0.0561,0.0324,0.0572,0.0572,0.0572,0.0572,0.0219,0.0247,0.0235,0.0257,0.0289,0.0336,0.043,0.0469,0.0569,0.057,0.0601,0.0534,0.056,0.0307,0.0572,0.0572,0.0572,0.0572,0.0572,0.0244,0.0265,0.0254,0.0274,0.0298,0.0344,0.0409,0.0481,0.0563,0.0599,0.0596,0.0595,0.0349,0.063,0.063,0.063,0.0631,0.0631,0.0631,0.0303,0.0295,0.0302,0.0298,0.0306,0.0332,0.0411,0.0469,0.0548,0.0588,0.0588,0.0342,0.062,0.0591,0.0633,0.0633,0.0633,0.0632,0.0632,0.0399,0.0363,0.038,0.0375,0.0369,0.0382,0.0416,0.0477,0.0544,0.0576,0.0294,0.0597,0.0599,0.0599,0.0571,0.0607,0.0607,0.0607,0.0607,0.0458,0.0442,0.0454,0.0451,0.0441,0.0421,0.0448,0.0451,0.0331,0.0206,0.0151,0.0071,0.0082,0.005,0.0061,0.0021,-0.0084,-0.0085,-0.0086,0.0527,0.0509,0.0531,0.049,0.0471,0.0458,0.0453,0.0345,0.0056,-0.0137,-0.0163,-0.0133,-0.0274,-0.0237,-0.0303,-0.0268,-0.0337,0,0]},{"header":{"parameterUnit":"m.s-1","parameterCategory":2,"la1":30.2992,"la2":30.254,"lo1":-89.0895,"lo2":-89.0443,"dy":0.0025,"dx":0.0025,"nx":19,"ny":19,"refTime":"2026-05-23T21:00:00:Z","depth":"0","parameterNumber":3,"parameterNumberName":"V-component_of_CURRENTS"},"data":[0,0,0,0.0911,0.0913,0.0984,0.0984,0.0974,0.0974,0,0,0,0,0,0,0,0,0,0,0,0.089,0.0891,0.0911,0.0914,0.0984,0.0984,0.0974,0.0974,0,0,0,0,0,0,0,0,0,0,0,0.089,0.0891,0.0893,0.0914,0.0984,0.0984,0.0974,0.0942,0,0,0,0,0,0,0,0,0,0,0.0884,0.0876,0.0891,0.0893,0.0914,0.0984,0.0984,0.0941,0.0944,0.0919,0,0.0951,0,0.0967,0.0973,0.0973,0,0,0,0.0896,0.0874,0.0906,0.0893,0.0915,0.0984,0.0948,0.0943,0.0946,0.0922,0.0951,0.0951,0.0967,0.0973,0.0973,0.101,0.1011,0,0,0.0893,0.0884,0.0904,0.0908,0.096,0.0945,0.095,0.0946,0.095,0.0951,0.0952,0.0966,0.0973,0.0972,0.101,0.101,0,0,0,0.0893,0.0881,0.0914,0.0908,0.0932,0.0948,0.0953,0.095,0.0966,0.0952,0.0966,0.0972,0.0972,0.1009,0.101,0.106,0,0,0,0.089,0.0883,0.0913,0.0905,0.0933,0.0954,0.0957,0.0966,0.0967,0.0966,0.0972,0.0972,0.1008,0.101,0.1058,0.1072,0,0,0,0.0883,0.0881,0.0901,0.0905,0.0945,0.0955,0.0969,0.0967,0.0975,0.0973,0.0972,0.1008,0.1009,0.1055,0.1068,0.1106,0,0,0,0.0854,0.0892,0.0901,0.0943,0.0944,0.0995,0.097,0.1,0.1005,0.0972,0.1009,0.101,0.1054,0.1066,0.1103,0.1,0.1004,0,0,0.0884,0.0896,0.092,0.0929,0.0962,0.0982,0.1023,0.1022,0.1013,0.0998,0.1,0.1058,0.1068,0.1105,0.1079,0.1079,0,0,0,0.0916,0.0923,0.0938,0.0961,0.1002,0.103,0.1043,0.106,0.1078,0.1027,0.1072,0.1076,0.1098,0.1031,0.1033,0.1058,0.1016,0.1016,0.1016,0.0878,0.091,0.0935,0.0973,0.101,0.1064,0.1101,0.1124,0.1109,0.1139,0.1128,0.1204,0.1134,0.1133,0.1162,0.1144,0.1144,0.1144,0.1144,0.0875,0.0893,0.0924,0.096,0.1008,0.1054,0.114,0.1164,0.1221,0.1193,0.1212,0.11,0.1137,0.1167,0.1148,0.1147,0.1147,0.1146,0.1146,0.0833,0.0856,0.0877,0.0929,0.0986,0.106,0.1153,0.1216,0.1256,0.1291,0.1214,0.1211,0.1227,0.1304,0.1304,0.1304,0.1304,0.1305,0.1305,0.0793,0.0826,0.0847,0.09,0.0941,0.1025,0.1171,0.1237,0.1273,0.1258,0.1257,0.1253,0.1252,0.1234,0.1309,0.1308,0.1307,0.1307,0.1307,0.0774,0.0783,0.082,0.0848,0.0944,0.1006,0.114,0.1227,0.1279,0.1266,0.1238,0.1238,0.121,0.1206,0.1187,0.1246,0.1246,0.1246,0.1246,0.0746,0.0757,0.0807,0.086,0.0931,0.1005,0.11,0.119,0.1224,0.1211,0.1232,0.1177,0.1178,0.1146,0.1145,0.1124,0.1166,0.1166,0.1166,0.0726,0.0745,0.0775,0.084,0.0927,0.1,0.107,0.113,0.1148,0.1172,0.1299,0.1302,0.1231,0.1231,0.1184,0.118,0.1146,0,0]}],[{"header":{"parameterUnit":"m.s-1","parameterCategory":2,"la1":30.2992,"la2":30.254,"lo1":-89.0895,"lo2":-89.0443,"dy":0.0025,"dx":0.0025,"nx":19,"ny":19,"refTime":"2026-05-23T21:00:00:Z","depth":"2","parameterNumber":2,"parameterNumberName":"U-component_of_CURRENTS"},"data":[0,0,0,-0.0148,-0.0148,-0.0139,-0.0139,-0.0093,-0.0093,0,0,0,0,0,0,0,0,0,0,0,-0.0152,-0.0152,-0.0148,-0.0148,-0.0139,-0.0139,-0.0093,-0.0093,0,0,0,0,0,0,0,0,0,0,0,-0.0152,-0.0152,-0.0152,-0.0148,-0.0139,-0.0139,-0.0093,-0.0108,0,0,0,0,0,0,0,0,0,0,-0.0121,-0.0132,-0.0152,-0.0152,-0.0148,-0.0139,-0.0139,-0.0109,-0.0107,-0.0089,0,-0.0092,0,-0.0092,-0.0089,-0.0089,0,0,0,-0.0144,-0.0134,-0.013,-0.0152,-0.0148,-0.0139,-0.0142,-0.0108,-0.0106,-0.0087,-0.0091,-0.009,-0.0091,-0.0089,-0.0089,-0.0031,-0.0031,0,0,-0.0145,-0.0149,-0.0132,-0.0129,-0.015,-0.0142,-0.0142,-0.0107,-0.0106,-0.0091,-0.0089,-0.009,-0.0089,-0.0088,-0.0031,-0.0031,0,0,0,-0.0149,-0.0149,-0.0147,-0.0131,-0.0132,-0.0142,-0.0141,-0.0108,-0.0107,-0.0089,-0.009,-0.0088,-0.0088,-0.0032,-0.0031,0.001,0,0,0,-0.0149,-0.0152,-0.0148,-0.015,-0.0133,-0.0125,-0.0143,-0.011,-0.0106,-0.009,-0.0088,-0.0087,-0.0032,-0.0031,0.0008,0.0007,0,0,0,-0.0152,-0.0152,-0.0153,-0.015,-0.0148,-0.0125,-0.0123,-0.0109,-0.0106,-0.0089,-0.0087,-0.0032,-0.0031,0.0007,0.0005,0.0003,0,0,0,-0.0154,-0.0155,-0.0153,-0.0147,-0.0148,-0.0123,-0.0123,-0.0102,-0.0086,-0.0088,-0.0032,-0.0031,0.0006,0.0004,0.0002,-0.0119,-0.0124,0,0,-0.0156,-0.0156,-0.015,-0.0147,-0.0126,-0.0124,-0.0086,-0.0069,-0.0071,-0.0041,-0.004,0.0009,0.0005,0.0002,-0.0085,-0.0091,0,0,0,-0.015,-0.015,-0.0142,-0.0129,-0.0109,-0.0081,-0.0063,-0.0044,-0.0013,-0.0061,0.0009,0.0005,0.0002,-0.0072,-0.0077,-0.0028,-0.0028,-0.0029,-0.0029,-0.0181,-0.0155,-0.0142,-0.0111,-0.0086,-0.0044,-0.0017,0.001,0.0014,0.0036,0.004,0.0065,-0.0012,-0.0018,0.0051,0.0051,0.0051,0.0051,0.0051,-0.0193,-0.0182,-0.0143,-0.0122,-0.0074,-0.0038,0.0031,0.0049,0.0089,0.0086,0.0081,-0.0024,-0.0021,0.0055,0.0054,0.0054,0.0053,0.0053,0.0053,-0.0223,-0.0208,-0.0194,-0.0149,-0.0101,-0.004,0.0004,0.0058,0.01,0.0116,0.001,0.0007,0.0073,0.0111,0.0111,0.0111,0.0111,0.0111,0.0111,-0.0256,-0.0234,-0.0219,-0.0175,-0.0146,-0.0095,-0.0015,0.0007,0.0016,0.0027,0.0025,0.0084,0.0082,0.0075,0.0111,0.0111,0.0111,0.0111,0.0111,-0.0264,-0.0264,-0.0241,-0.0221,-0.0159,-0.0141,-0.0094,-0.0108,-0.0079,-0.0103,-0.0031,-0.0028,-0.0062,-0.006,-0.0072,-0.0076,-0.0076,-0.0076,-0.0076,-0.0275,-0.0271,-0.024,-0.0209,-0.0173,-0.0149,-0.0233,-0.0354,-0.0333,-0.0352,-0.034,-0.0383,-0.0369,-0.0423,-0.0412,-0.0432,-0.053,-0.0531,-0.0532,-0.0267,-0.0261,-0.0238,-0.0209,-0.0168,-0.0172,-0.0327,-0.0508,-0.0533,-0.0551,-0.0432,-0.0104,-0.0135,-0.0126,-0.0183,-0.0177,-0.0198,0,0]},{"header":{"parameterUnit":"m.s-1","parameterCategory":2,"la1":30.2992,"la2":30.254,"lo1":-89.0895,"lo2":-89.0443,"dy":0.0025,"dx":0.0025,"nx":19,"ny":19,"refTime":"2026-05-23T21:00:00:Z","depth":"2","parameterNumber":3,"parameterNumberName":"V-component_of_CURRENTS"},"data":[0,0,0,-0.0166,-0.0165,-0.0154,-0.0154,-0.0167,-0.0167,0,0,0,0,0,0,0,0,0,0,0,-0.0172,-0.0172,-0.0166,-0.0165,-0.0154,-0.0154,-0.0167,-0.0167,0,0,0,0,0,0,0,0,0,0,0,-0.0172,-0.0172,-0.0172,-0.0165,-0.0154,-0.0154,-0.0166,-0.0169,0,0,0,0,0,0,0,0,0,0,-0.0176,-0.0182,-0.0172,-0.0172,-0.0165,-0.0154,-0.0154,-0.0169,-0.0169,-0.0179,0,-0.0176,0,-0.017,-0.0168,-0.0168,0,0,0,-0.0167,-0.0182,-0.0174,-0.0172,-0.0165,-0.0154,-0.016,-0.0168,-0.0169,-0.0179,-0.0177,-0.0177,-0.0171,-0.0168,-0.0168,-0.0182,-0.0182,0,0,-0.0168,-0.0175,-0.0174,-0.0174,-0.0162,-0.016,-0.0159,-0.0168,-0.0172,-0.0177,-0.0177,-0.0171,-0.0168,-0.0168,-0.0182,-0.0182,0,0,0,-0.0168,-0.0176,-0.0168,-0.0174,-0.0169,-0.016,-0.0159,-0.0171,-0.0167,-0.0177,-0.0171,-0.0168,-0.0169,-0.0182,-0.0182,-0.0145,0,0,0,-0.0169,-0.0175,-0.0168,-0.0173,-0.0168,-0.0167,-0.0162,-0.0167,-0.0167,-0.0171,-0.0168,-0.0169,-0.0182,-0.0182,-0.0146,-0.0118,0,0,0,-0.0173,-0.0176,-0.0174,-0.0173,-0.0166,-0.0167,-0.0163,-0.0167,-0.0164,-0.0168,-0.0169,-0.0182,-0.0182,-0.0147,-0.012,-0.0078,0,0,0,-0.0182,-0.0168,-0.0174,-0.0155,-0.0166,-0.0145,-0.0163,-0.0155,-0.0156,-0.0168,-0.0182,-0.0182,-0.0147,-0.0121,-0.008,0.0065,0.0085,0,0,-0.0166,-0.0167,-0.0153,-0.0157,-0.0133,-0.0146,-0.0129,-0.0142,-0.0163,-0.0181,-0.0181,-0.0146,-0.012,-0.0078,0.0064,0.0084,0,0,0,-0.0148,-0.0141,-0.0134,-0.0123,-0.0112,-0.0106,-0.012,-0.0132,-0.0147,-0.0163,-0.0157,-0.0141,-0.0116,-0.0033,-0.0017,-0.0182,-0.0182,-0.0182,-0.0182,-0.0152,-0.0133,-0.011,-0.0091,-0.0082,-0.0083,-0.0082,-0.0104,-0.0128,-0.0135,-0.012,-0.0074,0.0014,0.0027,-0.0137,-0.0137,-0.0137,-0.0137,-0.0136,-0.0128,-0.0108,-0.0091,-0.006,-0.0052,-0.004,-0.0049,-0.0065,-0.0063,-0.01,-0.0077,-0.0009,0.0047,-0.0134,-0.0134,-0.0135,-0.0135,-0.0135,-0.0135,-0.0133,-0.0115,-0.0095,-0.0051,-0.002,-0.0009,0.0024,0.0004,-0.0019,-0.0004,0.0098,0.0099,-0.0031,0.0014,0.0014,0.0014,0.0015,0.0015,0.0015,-0.0141,-0.0116,-0.0083,-0.0038,-0.0004,0.0037,0.007,0.0095,0.0156,0.0161,0.0163,-0.0023,-0.0028,-0.0023,0.002,0.0019,0.0018,0.0018,0.0018,-0.0127,-0.0122,-0.0072,-0.0035,0.0049,0.0113,0.015,0.0286,0.0316,0.0381,0.0259,0.0252,0.0261,0.0249,0.0261,0.0375,0.0375,0.0375,0.0375,-0.0123,-0.0115,-0.0047,0.0015,0.0087,0.0152,0.0288,0.0362,0.0414,0.0374,0.0372,0.0349,0.0338,0.0347,0.0333,0.0344,0.0478,0.0478,0.0477,-0.0104,-0.0087,-0.0038,0.0023,0.0114,0.0201,0.0335,0.0418,0.0399,0.0466,0.0234,0.0412,0.0377,0.0359,0.0368,0.0347,0.0363,0,0]}],[{"header":{"parameterUnit":"m.s-1","parameterCategory":2,"la1":30.2992,"la2":30.254,"lo1":-89.0895,"lo2":-89.0443,"dy":0.0025,"dx":0.0025,"nx":19,"ny":19,"refTime":"2026-05-23T21:00:00:Z","depth":"4","parameterNumber":2,"parameterNumberName":"U-component_of_CURRENTS"},"data":[0,0,0,-0.0739,-0.0743,-0.0975,-0.0977,-0.1168,-0.1169,0,0,0,0,0,0,0,0,0,0,0,-0.069,-0.0691,-0.0739,-0.0743,-0.0975,-0.0977,-0.1168,-0.1169,0,0,0,0,0,0,0,0,0,0,0,-0.0689,-0.0691,-0.0693,-0.0744,-0.0975,-0.0977,-0.1168,-0.1028,0,0,0,0,0,0,0,0,0,0,-0.0819,-0.0785,-0.0691,-0.0693,-0.0745,-0.0974,-0.0977,-0.1022,-0.1036,-0.1022,0,-0.1066,0,-0.109,-0.1176,-0.1177,0,0,0,-0.078,-0.0774,-0.0814,-0.0693,-0.0746,-0.0974,-0.0881,-0.1031,-0.1047,-0.1039,-0.1069,-0.1076,-0.1093,-0.1177,-0.1178,-0.1333,-0.1334,0,0,-0.0767,-0.0751,-0.0804,-0.0824,-0.0815,-0.0873,-0.0887,-0.1042,-0.1071,-0.1069,-0.108,-0.1096,-0.1178,-0.1179,-0.1332,-0.1333,0,0,0,-0.0705,-0.0742,-0.0784,-0.0816,-0.085,-0.0879,-0.0896,-0.1066,-0.1074,-0.1083,-0.1098,-0.1178,-0.118,-0.1331,-0.1333,-0.134,0,0,0,-0.0699,-0.0703,-0.0778,-0.0773,-0.0847,-0.0975,-0.0916,-0.1066,-0.1082,-0.1097,-0.1178,-0.1181,-0.133,-0.1332,-0.1337,-0.1337,0,0,0,-0.0678,-0.0701,-0.0726,-0.0771,-0.085,-0.0973,-0.0995,-0.1071,-0.1089,-0.1177,-0.1181,-0.1329,-0.1332,-0.1335,-0.1334,-0.1326,0,0,0,-0.0655,-0.0691,-0.0727,-0.0775,-0.0847,-0.0931,-0.0995,-0.1119,-0.1201,-0.1179,-0.133,-0.1332,-0.1334,-0.1332,-0.1325,-0.1053,0,0,0,-0.0673,-0.0694,-0.0716,-0.0751,-0.0818,-0.0901,-0.1,-0.1162,-0.1223,-0.1275,-0.1281,-0.1338,-0.1334,-0.1326,-0.1185,0,0,0,0,-0.0701,-0.0724,-0.0748,-0.0808,-0.0868,-0.0989,-0.1104,-0.1174,-0.133,-0.1274,-0.1381,-0.1378,-0.1372,-0.1213,-0.1343,-0.1343,-0.1342,-0.1342,-0.1342,-0.0707,-0.0737,-0.0781,-0.084,-0.0921,-0.1066,-0.1176,-0.1302,-0.1319,-0.1421,-0.1415,-0.1459,-0.1296,-0.1454,-0.1454,-0.1454,-0.1454,-0.1454,-0.1454,-0.0708,-0.0726,-0.0812,-0.0897,-0.1021,-0.1158,-0.1293,-0.1371,-0.1448,-0.1475,-0.1467,-0.1272,-0.1456,-0.1456,-0.1455,-0.1455,-0.1455,-0.1455,-0.1455,-0.0685,-0.0699,-0.079,-0.0908,-0.1114,-0.1271,-0.1393,-0.1472,-0.15,-0.1497,-0.1301,-0.1464,-0.1425,-0.1477,-0.1477,-0.1477,-0.1477,-0.1477,-0.1477,-0.0636,-0.0696,-0.0767,-0.0937,-0.1057,-0.1249,-0.1451,-0.1444,-0.1436,-0.1288,-0.1485,-0.1466,-0.1465,-0.1428,-0.1476,-0.1477,-0.1477,-0.1477,-0.1477,-0.0583,-0.0642,-0.0679,-0.0774,-0.0965,-0.1053,-0.1308,-0.1266,-0.12,-0.1047,-0.1172,-0.1187,-0.1152,-0.1159,-0.1108,-0.1065,-0.1061,-0.1058,0,-0.0544,-0.0572,-0.0594,-0.0633,-0.0666,-0.0903,-0.0822,-0.087,-0.0874,-0.0841,-0.1078,-0.1219,-0.1228,-0.1189,-0.119,-0.113,0,0,0,-0.05,-0.0516,-0.0484,-0.0525,-0.054,-0.0587,-0.0787,-0.0752,-0.093,-0.0796,-0.0973,-0.0996,-0.1233,-0.1476,-0.1458,-0.1457,-0.1396,0,0]},{"header":{"parameterUnit":"m.s-1","parameterCategory":2,"la1":30.2992,"la2":30.254,"lo1":-89.0895,"lo2":-89.0443,"dy":0.0025,"dx":0.0025,"nx":19,"ny":19,"refTime":"2026-05-23T21:00:00:Z","depth":"4","parameterNumber":3,"parameterNumberName":"V-component_of_CURRENTS"},"data":[0,0,0,-0.0096,-0.0097,-0.0107,-0.0107,-0.0083,-0.0083,0,0,0,0,0,0,0,0,0,0,0,-0.0094,-0.0094,-0.0096,-0.0097,-0.0107,-0.0107,-0.0083,-0.0083,0,0,0,0,0,0,0,0,0,0,0,-0.0094,-0.0094,-0.0094,-0.0097,-0.0107,-0.0107,-0.0083,-0.0085,0,0,0,0,0,0,0,0,0,0,-0.0079,-0.0085,-0.0094,-0.0094,-0.0097,-0.0107,-0.0107,-0.0085,-0.0085,-0.0067,0,-0.0069,0,-0.0073,-0.008,-0.008,0,0,0,-0.0099,-0.0086,-0.0085,-0.0094,-0.0097,-0.0107,-0.0103,-0.0085,-0.0085,-0.0065,-0.0069,-0.0068,-0.0072,-0.008,-0.0079,-0.004,-0.004,0,0,-0.0098,-0.0099,-0.0086,-0.0085,-0.01,-0.0103,-0.0103,-0.0085,-0.0086,-0.0069,-0.0068,-0.0072,-0.0079,-0.0079,-0.004,-0.004,0,0,0,-0.0095,-0.0098,-0.0099,-0.0085,-0.0089,-0.0103,-0.0104,-0.0087,-0.0086,-0.0068,-0.0071,-0.0079,-0.0079,-0.004,-0.004,-0.0064,0,0,0,-0.0095,-0.0096,-0.0098,-0.0099,-0.0089,-0.0094,-0.0105,-0.0087,-0.0086,-0.0072,-0.0079,-0.0078,-0.004,-0.004,-0.0064,-0.0078,0,0,0,-0.0094,-0.0096,-0.0097,-0.0099,-0.0102,-0.0094,-0.0093,-0.0087,-0.0087,-0.008,-0.0078,-0.004,-0.004,-0.0064,-0.0077,-0.0035,0,0,0,-0.0095,-0.0108,-0.0097,-0.0115,-0.0102,-0.0116,-0.0093,-0.0101,-0.0098,-0.0079,-0.004,-0.004,-0.0064,-0.0077,-0.0036,-0.013,0,0,0,-0.0115,-0.0111,-0.0123,-0.0113,-0.0139,-0.0115,-0.0132,-0.0116,-0.0083,-0.0044,-0.0043,-0.0064,-0.0077,-0.0035,-0.011,0,0,0,0,-0.0131,-0.014,-0.0145,-0.0157,-0.0158,-0.0163,-0.0143,-0.0115,-0.0076,-0.0078,-0.0051,-0.0058,-0.0031,-0.0086,-0.0038,-0.0038,-0.0038,-0.0039,-0.0039,-0.016,-0.0165,-0.0191,-0.0197,-0.0206,-0.0192,-0.0178,-0.0132,-0.0096,-0.0071,-0.0068,-0.0041,-0.0102,-0.0054,-0.0054,-0.0054,-0.0054,-0.0054,-0.0054,-0.0195,-0.0217,-0.0225,-0.0257,-0.026,-0.027,-0.0207,-0.0169,-0.0086,-0.0071,-0.0042,-0.0098,-0.0057,-0.0056,-0.0056,-0.0056,-0.0055,-0.0055,-0.0055,-0.0216,-0.0232,-0.0253,-0.0301,-0.0333,-0.032,-0.0309,-0.0215,-0.0111,-0.0083,-0.0092,-0.0039,-0.0046,-0.0044,-0.0044,-0.0044,-0.0044,-0.0044,-0.0044,-0.024,-0.0258,-0.0309,-0.0353,-0.0399,-0.041,-0.0347,-0.0314,-0.0192,-0.0124,-0.0068,-0.0037,-0.0037,-0.0044,-0.0042,-0.0042,-0.0043,-0.0043,-0.0043,-0.0277,-0.0293,-0.0355,-0.041,-0.0504,-0.0497,-0.0456,-0.0373,-0.0306,-0.0244,-0.0132,-0.0128,-0.0118,-0.0116,-0.0125,-0.0147,-0.0149,-0.015,0,-0.0307,-0.0317,-0.0408,-0.0496,-0.0561,-0.0555,-0.0524,-0.0479,-0.0318,-0.0262,-0.0282,-0.0155,-0.0151,-0.0144,-0.0143,-0.0157,0,0,0,-0.0338,-0.0354,-0.0423,-0.0508,-0.0593,-0.0543,-0.0505,-0.0468,-0.0317,-0.0367,-0.018,-0.0172,-0.0279,-0.0037,-0.0011,-0.0011,-0.002,0,0]}]]